Hourly Data Report for February 09, 2018

MIRAMICHI RCS
NEW BRUNSWICK

47°00'34.000" N
65°27'54.000" W
33.00 m
8100989
71744
ACQ

Download Data

Hourly Data (February 2018)
Hourly Data Report for February 9, 2018
TIME
LST
Temp Definition
°C
Dew Point Definition
°C
Rel Hum Definition
%
Precip. Amount Definition
mm

Wind Dir Definition
10's deg

Wind Spd Definition
km/h
Visibility Definition
km
Stn Press Definition
kPa
Hmdx Definition


Wind Chill Definition


Weather Definition


00:00 -17.2 -19.0 86 0.0 25 7   101.89   -22 LegendNANA
01:00 -18.8 -20.8 84 0.0 27 8   101.90   -25 LegendNANA
02:00 -18.6 -20.7 83 0.0 27 8   101.93   -25 LegendNANA
03:00 -19.3 -21.4 83 0.0 26 6   101.96   -24 LegendNANA
04:00 -20.4 -22.3 85 0.0 26 7   102.03   -26 LegendNANA
05:00 -20.3 -22.6 81 0.0 25 6   102.09   -25 LegendNANA
06:00 -21.3 -23.7 81 0.0 25 7   102.15   -27 LegendNANA
07:00 -21.5 -24.0 81 0.0 26 7   102.25   -27 LegendNANA
08:00 -20.3 -22.6 82 0.0 25 9   102.32   -27 LegendNANA
09:00 -17.7 -20.5 79 0.0 25 9   102.39   -24 LegendNANA
10:00 -15.1 -18.7 74 0.0 24 14   102.46   -23 LegendNANA
11:00 -12.4 -17.0 68 0.0 25 12   102.45   -19 LegendNANA
12:00 -9.2 -15.3 61 0.0 24 14   102.36   -16 LegendNANA
13:00 -7.5 -14.6 57 0.0 24 22   102.35   -15 LegendNANA
14:00 -6.8 -14.3 55 0.0 24 20   102.33   -14 LegendNANA
15:00 -6.6 -12.6 62 0.0 23 19   102.28   -13 LegendNANA
16:00 -6.3 -13.8 55 0.0 24 19   102.35   -13 LegendNANA
17:00 -6.9 -14.3 55 0.0 24 21   102.45   -14 LegendNANA
18:00 -8.9 -14.6 63 0.0 23 11   102.51   -14 LegendNANA
19:00 -9.7 -14.5 68 0.0 23 10   102.57   -15 LegendNANA
20:00 -10.5 -15.0 70 0.0 23 9   102.64   -15 LegendNANA
21:00 -11.7 -14.8 78 0.0 23 4   102.64   -14 LegendNANA
22:00 -14.5 -16.8 83 0.0   0   102.60     LegendNANA
23:00 -16.4 -18.0 87 0.0 0 1   102.63   -17 LegendNANA

Notes on Data Quality.

Legend

  • E = Estimated
  • M = Missing
  • NA = Not Available*
  • [empty] = Indicates an unobserved value
Date modified: